[[{"header":{"parameterUnit":"m.s-1","parameterCategory":1,"la1":30.2991,"la2":30.254,"lo1":-89.0895,"lo2":-89.0444,"dy":0.0017,"dx":0.0017,"nx":28,"ny":28,"refTime":"2023-08-16T03:00:00:Z","depth":0,"parameterNumber":2,"parameterNumberName":"U-component_of_WINDS"},"data":[0,0,0,0,0,0,0,0,0,0,0,0,0,0,0,0,0,0,0,0,0,0,0,0,0,0,0,0,0,0,0,0,0,0,0,0,0,0,0,0,0,0,0,0,0,0,0,0,0,0,0,0,0,0,0,0,0,0,1.0298,1.0299,0,1.0401,1.0403,1.0404,1.0445,1.0445,1.0445,1.0445,1.0551,1.0554,1.0557,0,0,0,0,0,0,0,0,0,0,0,0,0,1.0137,1.014,1.0298,1.03,1.0301,1.0401,1.0403,1.0404,1.0445,1.0445,1.0445,1.0444,1.055,1.0554,1.0557,0,0,0,0,0,0,0,0,0,0,0,0,0,1.022,1.0141,1.0298,1.0333,1.0338,1.0401,1.0403,1.0404,1.0445,1.0445,1.0445,1.0444,1.0549,1.0553,1.0558,1.0594,0,0,1.0572,1.0574,0,0,0,0,0,0,0,0,1.0216,1.0226,1.0327,1.0331,1.0336,1.041,1.0385,1.0468,1.0445,1.0405,1.0445,1.0444,1.0505,1.0513,1.0533,1.0599,1.0603,1.0572,1.0575,1.0577,1.0578,0,0,0,0,0,0,0,1.021,1.0222,1.0339,1.0328,1.0334,1.0344,1.0356,1.0401,1.0455,1.0408,1.0411,1.0423,1.0507,1.0528,1.0536,1.0605,1.0572,1.0576,1.0579,1.0581,1.0705,1.0705,0,0,0,0,0,0,1.0198,1.0217,1.0336,1.0342,1.0274,1.0347,1.036,1.0387,1.0455,1.0465,1.0423,1.0424,1.0521,1.053,1.054,1.0586,1.0577,1.0581,1.0584,1.0704,1.0705,1.0705,0,0,0,0,0,0,1.0195,1.0208,1.0332,1.0281,1.0297,1.0351,1.038,1.0389,1.041,1.0466,1.0476,1.0435,1.0521,1.0533,1.058,1.059,1.0583,1.0588,1.0704,1.0704,1.0705,1.0678,0,0,0,0,0,0,1.019,1.0207,1.0221,1.0281,1.03,1.037,1.0381,1.0391,1.0418,1.0421,1.048,1.049,1.0521,1.0573,1.0584,1.0596,1.0591,1.0703,1.0704,1.0705,1.0679,1.0678,1.0678,0,0,0,0,0,1.0184,1.021,1.0222,1.0236,1.0318,1.037,1.0381,1.0417,1.0419,1.0433,1.0469,1.0488,1.0587,1.0577,1.0591,1.0604,1.0702,1.0704,1.0705,1.0679,1.0678,1.0678,0,0,0,0,0,0,1.015,1.0218,1.0232,1.0278,1.0318,1.0377,1.0397,1.0415,1.0456,1.0457,1.05,1.0513,1.0556,1.0585,1.0573,1.0642,1.0646,1.065,1.0622,1.0622,1.0621,1.0613,1.0595,0,0,0,0,0,1.0148,1.0185,1.0242,1.0277,1.0296,1.0343,1.0367,1.0391,1.0434,1.0452,1.0491,1.0533,1.0573,1.0599,1.064,1.0683,1.0696,1.0699,1.0698,1.0698,1.0701,1.0725,1.0727,1.0709,1.0709,1.0709,0,0,1.0144,1.0186,1.0206,1.0271,1.0305,1.0342,1.0357,1.0395,1.0423,1.0458,1.0504,1.0534,1.0583,1.0628,1.065,1.0654,1.0708,1.0699,1.0698,1.0702,1.0727,1.0728,1.073,1.071,1.071,1.071,0,0,1.0156,1.0191,1.0224,1.0257,1.0308,1.0339,1.0347,1.0403,1.0424,1.0471,1.0498,1.0532,1.0601,1.0634,1.0661,1.0684,1.0703,1.0696,1.0694,1.0718,1.0719,1.0721,1.0729,1.0731,1.0699,1.0699,1.0699,0,1.0144,1.0201,1.0238,1.0275,1.0303,1.0335,1.0368,1.0399,1.0461,1.0479,1.0482,1.0569,1.0605,1.0658,1.0663,1.0683,1.0694,1.069,1.0716,1.0718,1.072,1.0728,1.0731,1.0698,1.0698,1.0698,1.0698,0,1.0184,1.0223,1.0243,1.0301,1.0331,1.0366,1.0409,1.0434,1.0456,1.0486,1.0533,1.0577,1.0626,1.0641,1.0662,1.0697,1.0697,1.0707,1.0712,1.072,1.0728,1.0731,1.0696,1.0697,1.0697,1.0697,0,0,1.0178,1.0256,1.0263,1.0289,1.0348,1.0378,1.0414,1.0463,1.0484,1.0525,1.0556,1.0613,1.0623,1.0653,1.0678,1.0699,1.0714,1.0707,1.0708,1.0706,1.0755,1.0747,1.075,1.0727,1.0727,1.0728,1.075,0,1.0197,1.0263,1.0297,1.0349,1.0385,1.0416,1.0447,1.0486,1.0516,1.055,1.0583,1.0623,1.0632,1.065,1.0672,1.0708,1.0724,1.0706,1.0756,1.0758,1.0743,1.0754,1.0746,1.0765,1.0754,1.0755,1.0755,0,1.0228,1.0269,1.0324,1.0377,1.0394,1.0422,1.0468,1.0501,1.0546,1.0566,1.0598,1.0623,1.0662,1.0664,1.0719,1.0705,1.0728,1.0748,1.075,1.0756,1.0757,1.076,1.0772,1.0775,1.0761,1.076,1.076,0,1.0218,1.0286,1.0328,1.035,1.0413,1.0432,1.0459,1.0504,1.0531,1.0571,1.0589,1.0634,1.0658,1.0692,1.0728,1.0726,1.0779,1.0784,1.0797,1.0796,1.0807,1.0806,1.0822,1.0821,1.0821,1.0821,1.0821,0,1.0236,1.0268,1.0324,1.0349,1.0386,1.0425,1.0461,1.0491,1.053,1.0562,1.0591,1.0621,1.0667,1.0701,1.073,1.0771,1.0782,1.0799,1.0806,1.0796,1.0794,1.0811,1.0811,1.0822,1.0822,1.0821,1.0821,0,1.023,1.0269,1.0316,1.0373,1.0387,1.0412,1.046,1.0486,1.0517,1.0557,1.0568,1.0616,1.0659,1.0698,1.0755,1.0774,1.0815,1.0824,1.08,1.0804,1.0814,1.0813,1.0843,1.0849,1.0843,1.0843,1.0843,0,1.0239,1.0265,1.0324,1.0347,1.0374,1.0411,1.0438,1.0477,1.0504,1.0557,1.0576,1.0621,1.0659,1.0725,1.0765,1.0809,1.082,1.0827,1.0826,1.0815,1.082,1.0818,1.082,1.0826,1.0826,1.0826,1.0826,0,1.025,1.0268,1.0306,1.0351,1.0382,1.0419,1.0457,1.0474,1.0521,1.0549,1.0593,1.0622,1.068,1.0724,1.0772,1.08,1.0821,1.0826,1.0831,1.0821,1.0806,1.0814,1.0798,1.0825,1.0825,1.0825,1.0825,1.0825,1.0253,1.0276,1.0322,1.0363,1.0395,1.043,1.0457,1.049,1.0527,1.0577,1.0598,1.0642,1.0686,1.0753,1.0781,1.0816,1.0821,1.0828,1.083,1.0831,1.0829,1.08,1.0825,1.0825,1.0825,1.0825,1.0825,0,1.0265,1.0296,1.0333,1.0385,1.0417,1.0433,1.0476,1.0502,1.054,1.058,1.0616,1.0666,1.0709,1.0751,1.0796,1.0816,1.0827,1.0827,1.0826,1.0832,1.0823,1.0814,1.0817,1.0817,1.0817,1.0817,1.0817,1.0817,1.0276,1.0317,1.034,1.0398,1.0428,1.0471,1.0494,1.0526,1.0558,1.0612,1.0647,1.0675,1.0716,1.0764,1.0803,1.0815,1.083,1.0827,1.0842,1.0832,1.0833,1.0833,1.0825,1.083,1.083,1.0848,1.0848,1.0848]},{"header":{"parameterUnit":"m.s-1","parameterCategory":1,"la1":30.2991,"la2":30.254,"lo1":-89.0895,"lo2":-89.0444,"dy":0.0017,"dx":0.0017,"nx":28,"ny":28,"refTime":"2023-08-16T03:00:00:Z","depth":0,"parameterNumber":3,"parameterNumberName":"V-component_of_WINDS"},"data":[0,0,0,0,0,0,0,0,0,0,0,0,0,0,0,0,0,0,0,0,0,0,0,0,0,0,0,0,0,0,0,0,0,0,0,0,0,0,0,0,0,0,0,0,0,0,0,0,0,0,0,0,0,0,0,0,0,0,3.2221,3.222,0,3.2174,3.2174,3.2173,3.2164,3.2165,3.2165,3.2165,3.2111,3.211,3.2108,0,0,0,0,0,0,0,0,0,0,0,0,0,3.2295,3.2293,3.2221,3.222,3.2219,3.2174,3.2174,3.2173,3.2164,3.2165,3.2165,3.2165,3.2112,3.211,3.2108,0,0,0,0,0,0,0,0,0,0,0,0,0,3.2257,3.2293,3.2221,3.221,3.2208,3.2175,3.2174,3.2173,3.2164,3.2165,3.2165,3.2166,3.2113,3.211,3.2107,3.2079,0,0,3.2099,3.2098,0,0,0,0,0,0,0,0,3.2259,3.2254,3.2212,3.221,3.2209,3.2176,3.218,3.2141,3.2164,3.2181,3.2165,3.2166,3.2132,3.2128,3.2117,3.2077,3.2074,3.2099,3.2097,3.2096,3.2095,0,0,0,0,0,0,0,3.2262,3.2256,3.2202,3.2211,3.2209,3.2205,3.22,3.2173,3.2153,3.2179,3.2178,3.2173,3.2131,3.212,3.2116,3.2074,3.2099,3.2096,3.2095,3.2094,3.2006,3.2005,0,0,0,0,0,0,3.2267,3.2258,3.2203,3.2201,3.2236,3.2203,3.2198,3.2186,3.2154,3.2149,3.2173,3.2173,3.2124,3.2119,3.2114,3.2078,3.2096,3.2094,3.2092,3.2006,3.2006,3.2005,0,0,0,0,0,0,3.2269,3.2262,3.2205,3.2229,3.2222,3.2201,3.2188,3.2184,3.2174,3.2149,3.2145,3.2166,3.2125,3.2118,3.2088,3.2076,3.2092,3.209,3.2007,3.2006,3.2005,3.2006,0,0,0,0,0,0,3.2271,3.2263,3.2254,3.2229,3.2221,3.2182,3.2187,3.2183,3.217,3.2169,3.2141,3.2137,3.2125,3.2092,3.2085,3.2073,3.2088,3.2008,3.2007,3.2005,3.2007,3.2005,3.2004,0,0,0,0,0,3.2274,3.2255,3.2253,3.2247,3.2209,3.2182,3.2176,3.2164,3.2169,3.2158,3.2142,3.2138,3.2079,3.2089,3.2081,3.2068,3.2009,3.2007,3.2006,3.2008,3.2006,3.2004,0,0,0,0,0,0,3.2276,3.2251,3.2249,3.2222,3.2204,3.218,3.2166,3.2163,3.2141,3.2141,3.2126,3.2119,3.209,3.2076,3.2088,3.2038,3.2044,3.2041,3.2048,3.2046,3.2044,3.2047,3.2086,0,0,0,0,0,3.2274,3.2256,3.2234,3.2212,3.2204,3.2187,3.2174,3.2167,3.2147,3.2138,3.212,3.2099,3.2075,3.206,3.2037,3.2006,3.1998,3.1992,3.1991,3.1989,3.1986,3.1967,3.1963,3.1999,3.1999,3.1999,0,0,3.2268,3.2252,3.2242,3.2213,3.2198,3.2177,3.218,3.2159,3.2143,3.2134,3.2105,3.2091,3.2066,3.2035,3.202,3.2022,3.1975,3.1987,3.1986,3.1984,3.1965,3.1961,3.1958,3.1998,3.1998,3.1999,0,0,3.2247,3.2235,3.2215,3.22,3.2178,3.2167,3.2162,3.2139,3.213,3.2101,3.2094,3.2074,3.2034,3.2016,3.2002,3.1974,3.1969,3.1967,3.1958,3.1939,3.1936,3.1933,3.1922,3.1918,3.1964,3.1964,3.1964,0,3.2242,3.2214,3.2204,3.2183,3.217,3.2164,3.2142,3.2127,3.2098,3.2088,3.2092,3.2041,3.2024,3.1988,3.1981,3.1971,3.1963,3.197,3.1938,3.1935,3.1932,3.1921,3.1917,3.1964,3.1964,3.1964,3.1964,0,3.2208,3.2188,3.2174,3.2148,3.2133,3.2112,3.2097,3.2083,3.2077,3.2064,3.2034,3.2013,3.1986,3.1977,3.197,3.1939,3.1941,3.1941,3.1946,3.1929,3.1918,3.1914,3.1964,3.1964,3.1964,3.1964,0,0,3.2186,3.2156,3.2151,3.2139,3.2115,3.2098,3.2075,3.2051,3.2038,3.2018,3.1997,3.1964,3.1964,3.1948,3.1939,3.1922,3.19,3.1924,3.1923,3.1919,3.1863,3.1862,3.1857,3.1897,3.1896,3.1895,3.1864,0,3.2161,3.2124,3.2114,3.2081,3.2061,3.2055,3.2035,3.2017,3.2005,3.1984,3.197,3.1946,3.1949,3.1939,3.1923,3.1906,3.1888,3.1909,3.1875,3.1874,3.188,3.1852,3.1851,3.1822,3.186,3.186,3.1859,0,3.2127,3.2109,3.2074,3.2052,3.2043,3.2026,3.2002,3.1983,3.1961,3.1954,3.1936,3.1928,3.1902,3.191,3.1873,3.1887,3.1872,3.1862,3.186,3.1855,3.1864,3.1844,3.1813,3.1808,3.1853,3.1853,3.1854,0,3.2113,3.2079,3.2054,3.2044,3.2018,3.2005,3.1993,3.1973,3.1958,3.1936,3.1926,3.1901,3.1887,3.1866,3.1851,3.1859,3.1814,3.1821,3.1805,3.1805,3.1794,3.1795,3.1759,3.1788,3.1788,3.1788,3.1788,0,3.2085,3.2064,3.2047,3.2031,3.2006,3.1995,3.197,3.1958,3.1939,3.1919,3.1912,3.1892,3.1875,3.1852,3.184,3.181,3.1804,3.1795,3.1792,3.1795,3.1796,3.1784,3.1784,3.1787,3.1787,3.1787,3.1788,0,3.2064,3.2053,3.2025,3.2003,3.1997,3.1979,3.1959,3.1942,3.193,3.1905,3.1898,3.1878,3.1852,3.1836,3.1801,3.1793,3.1759,3.1757,3.1767,3.1765,3.1749,3.175,3.1702,3.1695,3.1731,3.1731,3.173,0,3.2047,3.203,3.2007,3.1994,3.1983,3.1962,3.1948,3.1936,3.192,3.1894,3.188,3.1854,3.1832,3.1789,3.177,3.1743,3.1739,3.1725,3.1735,3.1738,3.1737,3.1737,3.1735,3.1722,3.1722,3.1722,3.1722,0,3.2016,3.2011,3.1992,3.197,3.1954,3.1936,3.1917,3.1907,3.1891,3.1874,3.1848,3.1831,3.1797,3.1769,3.1741,3.1726,3.172,3.1719,3.1713,3.1715,3.1721,3.1716,3.176,3.1719,3.172,3.172,3.172,3.172,3.1995,3.198,3.1961,3.1939,3.1925,3.1908,3.1891,3.1878,3.1857,3.1829,3.1823,3.1795,3.1772,3.1734,3.1718,3.1695,3.1696,3.1689,3.1686,3.1684,3.1683,3.1727,3.169,3.169,3.169,3.169,3.169,0,3.1962,3.195,3.1931,3.1906,3.1889,3.1888,3.1868,3.1852,3.1828,3.1809,3.1788,3.1757,3.1731,3.171,3.1682,3.1667,3.1663,3.166,3.166,3.1656,3.1684,3.1691,3.1663,3.1663,3.1663,3.1663,3.1663,3.1663,3.1943,3.1917,3.191,3.1876,3.1863,3.1838,3.1826,3.1809,3.1794,3.176,3.1739,3.1727,3.1706,3.1677,3.1652,3.1646,3.1635,3.1632,3.1626,3.1652,3.1654,3.1657,3.1663,3.163,3.163,3.1599,3.1599,3.1599]}]]